Regional Weather Roundup
Issued by NWS

Home | Current Version | Previous Version | Graphics & Text | Print | Product List | Glossary On
Versions: 1 2 3 4 5 6 7 8 9 10 11 12 13 14 15 16 17 18 19 20 21 22 23 24 25 26 27 28
000
ASUS45 KBOU 040507
RWRCO

WEATHER ROUNDUP FOR COLORADO
NATIONAL WEATHER SERVICE DENVER/BOULDER CO
1000 PM MST SAT DEC 03 2016

NOTE: "FAIR" INDICATES FEW OR NO CLOUDS BELOW 12000 FEET WITH NO
SIGNIFICANT WEATHER AND/OR OBSTRUCTIONS TO VISIBILITY.

COZ001>005-013-030-031-040600-
...NORTHWEST COLORADO...

CITY           SKY/WX    TMP DP  RH WIND       PRES   REMARKS
CRAIG          CLOUDY    22  16  78 SE3       30.19R
HAYDEN         MOCLDY    19  12  73 CALM      30.17R
MEEKER         FAIR       9   6  88 NE3       30.19R
MOUNT WERNER   NOT AVBL
STEAMBOAT SPGS CLOUDY    17  13  85 CALM      30.16R
WALDEN           N/A     12   7  79 S6        30.09R WCI   3
$$

COZ006>008-011-040600-
...WEST CENTRAL VALLEYS...

CITY           SKY/WX    TMP DP  RH WIND       PRES   REMARKS
GRAND JUNCTION FAIR      22  17  81 SE8       30.21R WCI  12
MONTROSE       FAIR      21  13  71 SE10      30.24R WCI  10
EAGLE          FAIR      16   9  74 E5        30.19R WCI   9
RIFLE          FAIR      20  13  74 CALM      30.21R
DELTA          NOT AVBL
NUCLA          FAIR      21  12  68 E7        30.23R WCI  13
$$

COZ017>023-064>068-040600-
...SOUTHWEST COLORADO...

CITY           SKY/WX    TMP DP  RH WIND       PRES   REMARKS
DURANGO        FAIR      21  18  88 NE6       30.08R WCI  13
CORTEZ         FAIR      23  13  65 E5        30.13S WCI  17
PAGOSA SPRINGS FAIR      20  20  98 CALM      30.09S
TELLURIDE      FAIR      13   8  79 E5        30.15R WCI   6
WOLF CREEK PAS FAIR       9   5  85 NW14G21   30.09S WCI  -8
$$

COZ009-010-012-014-032>034-037-058>063-040600-
...CENTRAL COLORADO...

CITY           SKY/WX    TMP DP  RH WIND       PRES   REMARKS
ASPEN          FAIR      14  10  84 SW3       30.13F
BUENA VISTA    FAIR      22   5  49 NW12      30.07F WCI  10
COPPER MTN       N/A      9   1  72 W14       30.01F WCI  -8
BERTHOUD PASS  CLOUDY     1 -11  55 NW29G41   29.91F WCI -24
COTTONWOOD PAS FAIR      23  -4  30 SW22G36   30.02F WCI   8
GUNNISON       FAIR      14   8  77 CALM      30.17R
KREMMLING      CLOUDY    27  19  74 CALM      30.14R
LEADVILLE      MOCLDY     6   1  80 NE5       30.06F WCI  -3
MONARCH PASS     N/A      5   1  85 SW21G29   30.12R WCI -16
SALIDA         FAIR      20   8  61 W6        30.17S WCI  12
SUNLIGHT       FAIR       9   5  85 W3        30.12F
WILKERSON PASS FAIR       9   1  72 W9        30.02F WCI  -5
$$

COZ069>075-040600-
...SAN LUIS VALLEY/SANGRE DE CRISTO MOUNTAINS...

CITY           SKY/WX    TMP DP  RH WIND       PRES   REMARKS
ALAMOSA        FAIR       5   2  87 E6        30.11R FOG     WCI  -6
LA VETA PASS   FAIR      16  12  86 E16       30.05R WCI   0
SAGUACHE       FAIR      21   9  58 NW9       30.12R WCI  11
$$

COZ035-036-038>040-040600-
...NORTHERN COLORADO FRONT RANGE...

CITY           SKY/WX    TMP DP  RH WIND       PRES   REMARKS
DENVER INTL AP FAIR      25  12  58 SW7       30.03F WCI  17
DMNS CITY PARK   N/A     33   5  30 W3G13     30.04F
AURORA         PTCLDY    26   9  48 W3        30.04F
FRONT RANGE AP NOT AVBL
ERIE MUNI ARPT FAIR      19  11  70 SW5       30.03F WCI  12
BOULDER MUN AP FAIR      34   7  32 W10G17    30.03F WCI  26
CENTENNIAL     FAIR      26   8  46 W5        30.03F WCI  20
BROOMFIELD     PTCLDY    32   7  34 W8        30.04S WCI  25
FORT COLLINS   FAIR      27   7  43 S6        30.03F WCI  20
LONGMONT       FAIR      25  11  55 S5        30.05F WCI  19
$$

COZ041-046-047-076>085-087-088-040600-
...PIKES PEAK/PALMER DIVIDE AND SOUTHERN FOOTHILLS...

CITY           SKY/WX    TMP DP  RH WIND       PRES   REMARKS
COLO. SPRINGS  FAIR      25   9  50 NW6       30.07R WCI  18
A. F. ACADEMY  FAIR      20   9  63 E3        30.05R
SCHRIEVER AFB  NOT AVBL
ELLICOTT       FAIR     N/A N/A N/A NW3       30.06R
FALCON         FAIR      24   9  53 N5        30.06R WCI  18
FORT CARSON    FAIR      27  11  51 CALM      30.05R
LIMON          FAIR      19  15  84 VRB3      30.06R
MONUMENT HILL  FAIR      19   9  63 W6        30.05F WCI  11
TRINIDAD       FAIR      20  12  71 W8        30.06R WCI  10
$$

COZ042>045-048>051-090-091-040600-
...NORTHEAST COLORADO...

CITY           SKY/WX    TMP DP  RH WIND       PRES   REMARKS
GREELEY ARPT   FAIR      21  16  81 SW5       30.05F WCI  15
AKRON          FAIR      28  12  51 NW13      30.03R WCI  17
BURLINGTON     FAIR      24  13  62 NW7       30.04S WCI  16
WRAY           FAIR      25  14  63 W5        30.04  WCI  19
STERLING       FAIR      30  14  51 NW13      30.02S WCI  20
HOLYOKE        FAIR      28  16  59 W9        30.03S WCI  20
FORT MORGAN    FAIR      29  10  45 NW13      30.05S WCI  19
$$

COZ086-089-092>099-040600-
...SOUTHEAST COLORADO...

CITY           SKY/WX    TMP DP  RH WIND       PRES   REMARKS
PUEBLO         FAIR      23  15  71 W6        30.09R WCI  16
LA JUNTA       FAIR      23  19  85 NW8       30.07R WCI  14
LAMAR          MIX PCPN  21  18  88 S6        30.05R FOG     WCI  13
SPRINGFIELD      N/A     23  23 100 NW6       30.03R WCI  16
$$




USA.gov is the U.S. government's official web portal to all federal, state and local government web resources and services.